Blackpool, United Kingdom

1:23 PM GMT on January 17, 2018 (GMT +0000)
Blackpool

Weather History for EGNH - May, 2013

Change the Weather History Date:

Saturday, May 11, 2013

  Actual Average Record
Temperature  
Mean Temperature 48 °F -  
Max Temperature 51 °F 58 °F 77 °F (2001)
Min Temperature 46 °F 48 °F 33 °F (2005)
Degree Days  
Heating Degree Days 16    
Moisture  
Dew Point 43 °F    
Average Humidity 81    
Maximum Humidity 100    
Minimum Humidity 67    
Precipitation  
Precipitation 0.00 in - - ()
Sea Level Pressure  
Sea Level Pressure 29.71 in    
Wind  
Wind Speed 19 mph ()    
Max Wind Speed 25 mph    
Max Gust Speed -    
Visibility 6.1 miles    
Events Rain    
Averages and records for this station are not official NWS values.
T = Trace of Precipitation, MM = Missing Value Source: Averaged Metar Reports

Daily Weather History Graph

Daily Weather History Graph

Search for Another Location

Airport or City:

Trip Planner

Search our weather history database for the weather conditions in past years. The results will help you decide how hot, cold, wet, or windy it might be!

Date:

Astronomy

May. 11, 2013 Rise Set
Actual Time 5:17 AM BST 9:00 PM BST
Civil Twilight 4:33 AM BST 9:45 PM BST
Nautical Twilight 3:31 AM BST 10:47 PM BST
Astronomical Twilight 1:41 AM BST 12:49 AM BST
Moon 6:10 AM BST (5/11) 10:34 PM BST (5/11)
Length of Visible Light 17h 11m
Length of Day
15h 43m
New Moon, 2% of the Moon is Illuminated
May 11
New Moon
May 18
First Quarter
May 25
Full
May 31
Last Quarter
Jun 8
New

Hourly Weather History & Observations

Time (BST) Temp. Windchill Dew Point Humidity Pressure Visibility Wind Dir Wind Speed Gust Speed Precip Events Conditions
6:20 AM 46.4 °F 38.5 °F 42.8 °F 87% 29.68 in 6.2 mi SW 21.9 mph - N/A   Scattered Clouds
6:50 AM 48.2 °F - 42.8 °F 82% 29.68 in 6.2 mi SW 17.3 mph - N/A   Mostly Cloudy
7:20 AM 48.2 °F - 42.8 °F 82% 29.68 in 6.2 mi SW 17.3 mph - N/A Rain Light Rain
7:50 AM 48.2 °F - 42.8 °F 82% 29.68 in 6.2 mi WSW 17.3 mph - N/A Rain Light Rain
8:20 AM 46.4 °F 38.5 °F 44.6 °F 93% 29.68 in 6.2 mi SW 21.9 mph - N/A Rain Light Rain
8:50 AM 46.4 °F 38.7 °F 44.6 °F 93% 29.68 in 5.6 mi SW 20.7 mph - N/A Rain Rain
9:20 AM 46.4 °F 38.1 °F 44.6 °F 93% 29.68 in 6.2 mi WSW 24.2 mph - N/A Rain Light Rain
9:50 AM 48.2 °F - 46.4 °F 93% 29.68 in 5.6 mi WSW 24.2 mph - N/A Rain Rain
10:20 AM 48.2 °F - 46.4 °F 93% 29.68 in 5.6 mi WSW 23.0 mph - N/A Rain Rain
10:50 AM 48.2 °F - 46.4 °F 93% 29.68 in 5.0 mi WSW 21.9 mph - N/A Rain Rain
11:20 AM 48.2 °F - 48.2 °F 100% 29.68 in 6.2 mi WSW 23.0 mph - N/A Rain Rain
11:50 AM 50.0 °F - 48.2 °F 94% 29.68 in 6.2 mi WSW 23.0 mph - N/A Rain Light Rain
12:20 PM 50.0 °F - 46.4 °F 87% 29.68 in 6.2 mi West 24.2 mph - N/A   Scattered Clouds
12:50 PM 51.8 °F - 46.4 °F 82% 29.68 in 6.2 mi West 21.9 mph - N/A   Partly Cloudy
1:20 PM 51.8 °F - 44.6 °F 76% 29.71 in 6.2 mi West 25.3 mph - N/A   Partly Cloudy
1:50 PM 51.8 °F - 44.6 °F 76% 29.71 in 6.2 mi West 21.9 mph - N/A   Partly Cloudy
2:20 PM 51.8 °F - 42.8 °F 71% 29.71 in 6.2 mi West 25.3 mph - N/A   Partly Cloudy
2:50 PM 50.0 °F - 42.8 °F 76% 29.71 in 6.2 mi West 25.3 mph - N/A   Partly Cloudy
3:20 PM 51.8 °F - 41.0 °F 67% 29.71 in 6.2 mi West 20.7 mph - N/A   Partly Cloudy
3:50 PM 50.0 °F - 42.8 °F 76% 29.71 in 6.2 mi West 25.3 mph - N/A   Partly Cloudy
4:20 PM 50.0 °F - 42.8 °F 76% 29.71 in 6.2 mi West 25.3 mph - N/A   Partly Cloudy
4:50 PM 48.2 °F - 39.2 °F 71% 29.74 in 6.2 mi West 25.3 mph - N/A   Scattered Clouds
5:20 PM 48.2 °F - 39.2 °F 71% 29.74 in 6.2 mi WNW 18.4 mph - N/A Rain Light Rain Showers
5:50 PM 48.2 °F - 39.2 °F 71% 29.74 in 6.2 mi West 19.6 mph - N/A   Scattered Clouds
6:20 PM 48.2 °F - 41.0 °F 76% 29.74 in 6.2 mi West 19.6 mph - N/A   Scattered Clouds
6:50 PM 48.2 °F - 39.2 °F 71% 29.74 in 6.2 mi West 20.7 mph - N/A   Partly Cloudy
7:20 PM 48.2 °F - 41.0 °F 76% 29.74 in 6.2 mi West 24.2 mph - N/A   Partly Cloudy
7:50 PM 48.2 °F - 39.2 °F 71% 29.77 in 6.2 mi West 21.9 mph - N/A   Partly Cloudy
8:20 PM 48.2 °F - 39.2 °F 71% 29.77 in 6.2 mi West 21.9 mph - N/A   Partly Cloudy
8:50 PM 46.4 °F 38.1 °F 41.0 °F 81% 29.77 in 6.2 mi WNW 24.2 mph - N/A Rain Light Rain